User: anonymous
Location: Niverville
(49.6028°N, 97.0419°W)
Time: 06:38:42
(UTC-05:00)
Language:

Cosmos 1154 Rocket - Orbit

View from above orbital plane
View from above orbital plane
View from above satellite
View from above satellite

Ground track
Ground track

The orbit data is extracted from the following two-line orbital elements,

1 11683U 80008B   14245.09110926  .00150280  72255-5  45836-3 0  4625
2 11683 081.1626 291.6042 0007130 138.4090 221.7723 15.91837685904487
Epoch (UTC): 02 September 2014 02:11:11
Eccentricity: 0.0007130
inclination: 81.1626°
perigee height: 292 km
apogee height: 302 km
right ascension of ascending node: 291.6042°
argument of perigee: 138.4090°
revolutions per day: 15.91837685
mean anomaly at epoch: 221.7723°
orbit number at epoch: 90448

The dashed part of the orbit path shows where the satellite is in the earth's shadow,  

DLR